Stations météo

réclame
Mon MeteoGroup
Lecce, Italie (16332): Température de l'air & dewpoint: 08.08.2018 19:00:00 - 14.08.2018 19:00:00 (CEST)Lecce, Italie (16332): Vitesse du vent: 08.08.2018 19:00:00 - 14.08.2018 19:00:00 (CEST)Lecce, Italie (16332): Direction du vent: 08.08.2018 19:00:00 - 14.08.2018 19:00:00 (CEST)Lecce, Italie (16332): reduced air pressure: 08.08.2018 19:00:00 - 14.08.2018 19:00:00 (CEST)Lecce, Italie (16332): visibility: 08.08.2018 19:00:00 - 14.08.2018 19:00:00 (CEST)
Date & Time tt [°C] td [°C] ff [km/h] ff [knt] dd ppp [hPa] vv [km]
14.08.2018 19:00:00 - - - - - - -
14.08.2018 18:00:00 32,0 20,0 11 6 SSE - 10
14.08.2018 17:00:00 31,4 19,1 11 6 SE 1010,5 10
14.08.2018 16:00:00 28,0 22,0 15 8 SE - 10
14.08.2018 15:00:00 30,0 26,0 8 4 SSW - 8
14.08.2018 14:00:00 32,2 22,9 5 3 S 1011,2 10
14.08.2018 13:00:00 32,0 22,0 5 3 S - 10
14.08.2018 12:00:00 31,0 23,0 4 2 SSE - 10
14.08.2018 11:00:00 29,8 22,2 8 4 SSE 1012,1 10
14.08.2018 10:00:00 29,0 23,0 5 3 WSW - 10
14.08.2018 09:00:00 27,0 24,0 9 5 SE - 8
14.08.2018 08:00:00 26,6 24,4 5 3 ESE 1012,2 7
14.08.2018 07:00:00 24,0 23,0 5 3 E - 7
14.08.2018 06:00:00 22,0 22,0 0 0 N - 10
14.08.2018 05:00:00 22,6 21,4 0 0 N 1011,7 10
14.08.2018 04:00:00 24,0 23,0 0 0 N - 10
14.08.2018 03:00:00 23,0 22,0 0 0 N - 10
14.08.2018 02:00:00 24,2 23,0 0 0 N 1012,4 10
14.08.2018 01:00:00 24,0 23,0 0 0 N - 10
14.08.2018 00:00:00 25,0 24,0 9 5 SSE - 10
13.08.2018 23:00:00 26,6 24,6 5 3 SSE 1012,3 10
13.08.2018 22:00:00 27,0 25,0 8 4 S - 10
13.08.2018 21:00:00 28,0 23,0 9 5 S - 10
13.08.2018 20:00:00 31,2 22,0 13 7 SSW 1012,0 10
13.08.2018 19:00:00 33,0 22,0 18 10 S - 10
13.08.2018 18:00:00 34,0 21,0 13 7 SSW - 10
13.08.2018 17:00:00 33,8 21,2 18 10 SW 1012,2 10
13.08.2018 16:00:00 35,0 21,0 16 9 WSW - 10
13.08.2018 15:00:00 35,0 20,0 18 10 SW - 10
13.08.2018 14:00:00 34,8 19,2 9 5 W 1013,9 10
13.08.2018 13:00:00 34,0 21,0 13 7 SW - 10
13.08.2018 12:00:00 35,0 21,0 18 10 SSW - 10
13.08.2018 11:00:00 32,4 19,7 4 2 N 1014,6 10
13.08.2018 10:00:00 31,0 22,0 5 3 - - 10
13.08.2018 09:00:00 29,0 22,0 5 3 - - 10
13.08.2018 08:00:00 25,6 22,5 4 2 N 1014,2 10
13.08.2018 07:00:00 23,0 22,0 5 3 - - 6
13.08.2018 06:00:00 22,0 21,0 4 2 - - 5
13.08.2018 05:00:00 22,4 21,7 4 2 N 1014,2 6
13.08.2018 04:00:00 23,0 22,0 4 2 - - 10
13.08.2018 03:00:00 23,0 22,0 2 1 - - 10
13.08.2018 02:00:00 24,0 23,2 2 1 N 1015,1 10
13.08.2018 01:00:00 25,0 24,0 4 2 - - 10
13.08.2018 00:00:00 25,0 24,0 2 1 - - 10
12.08.2018 23:00:00 26,0 24,2 4 2 N 1015,3 10
12.08.2018 22:00:00 27,0 24,0 8 4 SW - 10
12.08.2018 21:00:00 27,0 25,0 13 7 WSW - 10
12.08.2018 20:00:00 30,0 18,4 0 0 N 1014,7 10
12.08.2018 19:00:00 32,0 17,0 8 4 N - 10
12.08.2018 18:00:00 32,0 17,0 13 7 NNE - 10
12.08.2018 17:00:00 33,0 18,0 13 7 NNE 1015,0 10
12.08.2018 16:00:00 34,0 19,0 15 8 N - 10
12.08.2018 15:00:00 34,0 21,0 15 8 NNE - 10
12.08.2018 14:00:00 33,2 21,4 15 8 N 1016,0 10
12.08.2018 13:00:00 33,0 21,0 13 7 N - 10
12.08.2018 12:00:00 32,0 21,0 15 8 N - 10
12.08.2018 11:00:00 31,4 21,6 13 7 N 1016,1 10
12.08.2018 10:00:00 30,0 21,0 11 6 N - 10
12.08.2018 09:00:00 29,0 24,0 11 6 N - 10
12.08.2018 08:00:00 26,6 23,7 9 5 N 1015,9 10
12.08.2018 07:00:00 23,0 22,0 5 3 NNW - 10
12.08.2018 06:00:00 23,0 22,0 4 2 N - 10
12.08.2018 05:00:00 22,8 21,4 4 2 N 1015,5 10
12.08.2018 04:00:00 23,0 22,0 5 3 WNW - 10
12.08.2018 03:00:00 24,0 22,0 11 6 NNW - 10
12.08.2018 02:00:00 24,6 23,0 11 6 NNW 1015,7 10
12.08.2018 01:00:00 25,0 23,0 5 3 W - 10
12.08.2018 00:00:00 25,0 23,0 5 3 W - 10
11.08.2018 23:00:00 25,2 23,1 5 3 NW 1016,0 10
11.08.2018 22:00:00 27,0 24,0 8 4 NNW - 10
11.08.2018 21:00:00 28,0 24,0 11 6 N - 10
11.08.2018 20:00:00 29,0 24,6 11 6 N 1015,5 10
11.08.2018 19:00:00 30,0 24,0 13 7 N - 10
11.08.2018 18:00:00 31,0 23,0 15 8 NNE - 10
11.08.2018 17:00:00 32,0 21,5 15 8 N 1015,4 10
11.08.2018 16:00:00 32,0 22,0 18 10 NNE - 10
11.08.2018 15:00:00 33,0 23,0 18 10 N - 10
11.08.2018 14:00:00 33,0 23,0 16 9 N 1016,1 10
11.08.2018 13:00:00 33,0 24,0 15 8 NNW - 10
11.08.2018 12:00:00 32,0 24,0 15 8 N - 10
11.08.2018 11:00:00 31,2 22,8 13 7 NNE 1017,1 10
11.08.2018 10:00:00 31,0 23,0 15 8 N - 10
11.08.2018 09:00:00 29,0 24,0 13 7 N - 10
11.08.2018 08:00:00 25,8 23,5 9 5 NNW 1017,0 8
11.08.2018 07:00:00 22,0 22,0 2 1 - - 10
11.08.2018 06:00:00 22,0 21,0 4 2 ENE - 7
11.08.2018 05:00:00 21,4 19,5 4 2 N 1017,0 10
11.08.2018 04:00:00 22,0 20,0 2 1 - - 10
11.08.2018 03:00:00 22,0 20,0 4 2 NNW - 10
11.08.2018 02:00:00 22,0 20,7 2 1 N 1017,1 10
11.08.2018 01:00:00 23,0 20,0 4 2 NW - 10
11.08.2018 00:00:00 24,0 21,0 4 2 W - 10
10.08.2018 23:00:00 24,2 21,5 8 4 WNW 1017,6 10
10.08.2018 22:00:00 26,0 21,0 4 2 NW - 10
10.08.2018 21:00:00 28,0 21,0 5 3 N - 10
10.08.2018 20:00:00 28,8 19,4 15 8 N 1017,1 10
10.08.2018 19:00:00 32,0 18,0 15 8 N - 10
10.08.2018 18:00:00 33,0 19,0 13 7 N - 10
10.08.2018 17:00:00 33,2 19,7 15 8 NE 1016,6 10
10.08.2018 16:00:00 34,0 19,0 18 10 N - 10
10.08.2018 15:00:00 34,0 20,0 13 7 NNE - 10
10.08.2018 14:00:00 33,8 21,6 18 10 NNE 1017,1 10
10.08.2018 13:00:00 33,0 20,0 13 7 NE - 10
10.08.2018 12:00:00 33,0 20,0 13 7 NE - 10
10.08.2018 11:00:00 32,2 20,1 11 6 N 1017,3 10
10.08.2018 10:00:00 31,0 21,0 16 9 N - 10
10.08.2018 09:00:00 30,0 22,0 11 6 NNE - 10
10.08.2018 08:00:00 27,0 23,9 8 4 NE 1017,5 7
10.08.2018 07:00:00 23,0 22,0 0 0 N - 5
10.08.2018 06:00:00 22,0 21,0 0 0 N - 4,0
10.08.2018 05:00:00 21,8 21,0 0 0 N 1016,9 7
10.08.2018 04:00:00 22,0 21,0 0 0 N - 8
10.08.2018 03:00:00 23,0 22,0 0 0 N - 10
10.08.2018 02:00:00 23,0 22,2 0 0 N 1016,2 10
10.08.2018 01:00:00 23,0 22,0 0 0 N - 10
10.08.2018 00:00:00 24,0 23,0 4 2 NW - 10
09.08.2018 23:00:00 25,2 23,4 4 2 ESE 1016,0 10
09.08.2018 22:00:00 26,0 23,0 2 1 - - 10
09.08.2018 21:00:00 28,0 24,0 5 3 ENE - 10
09.08.2018 20:00:00 29,4 23,1 9 5 ENE 1015,1 10
09.08.2018 19:00:00 31,0 22,0 11 6 NE - 10
09.08.2018 18:00:00 31,0 23,0 16 9 WNW - 10
09.08.2018 17:00:00 32,4 21,9 21 11 W 1014,9 10
09.08.2018 16:00:00 30,0 21,0 18 10 WNW - 10
09.08.2018 15:00:00 28,0 23,0 13 7 NW - 10
09.08.2018 14:00:00 34,2 20,9 11 6 SW 1015,0 10
09.08.2018 13:00:00 33,0 21,0 5 3 S - 10
09.08.2018 12:00:00 30,0 23,0 2 1 - - 10
09.08.2018 11:00:00 29,6 23,5 5 3 NE 1015,6 10
09.08.2018 10:00:00 29,0 21,0 8 4 NNE - 10
09.08.2018 09:00:00 27,0 21,0 8 4 N - 10
09.08.2018 08:00:00 23,6 21,3 0 0 N 1015,3 10
09.08.2018 07:00:00 21,0 20,0 0 0 N - 10
09.08.2018 06:00:00 22,0 20,0 0 0 N - 10
09.08.2018 05:00:00 20,4 19,4 0 0 N 1014,5 10
09.08.2018 04:00:00 22,0 20,0 0 0 N - 10
09.08.2018 03:00:00 23,0 21,0 0 0 N - 10
09.08.2018 02:00:00 23,4 21,3 0 0 N 1014,9 10
09.08.2018 01:00:00 24,0 22,0 0 0 N - 10
09.08.2018 00:00:00 24,0 21,0 5 3 S - 10
08.08.2018 23:00:00 25,0 21,9 0 0 N 1014,9 10
08.08.2018 22:00:00 26,0 22,0 0 0 N - 10
08.08.2018 21:00:00 28,0 23,0 0 0 N - 10
08.08.2018 20:00:00 29,8 20,7 9 5 WSW 1013,9 10
08.08.2018 19:00:00 31,0 18,0 15 8 WSW - 10

tt = Température de l'air
td = dewpoint
ff = Vitesse du vent
dd = Direction du vent
ppp = reduced air pressure
vv = visibility

stations d'obs. à proximité